Meteo pe oră la Alhos Vedros

Astăzi, 24 Ianuarie, Duminică

Timp Temperatura Precipitaţii Vânt Presiune Umiditate
00:00 +13°C° 0 mm 5 m/s 761 mmHg 87%
01:00 +13°C° 0 mm 5 m/s 761 mmHg 87%
02:00 +12°C° 0 mm 5 m/s 761 mmHg 88%
03:00 +12°C° 0 mm 5 m/s 761 mmHg 87%
04:00 +12°C° 0 mm 4 m/s 761 mmHg 86%
05:00 +11°C° 0 mm 3 m/s 762 mmHg 86%
06:00 +11°C° 0 mm 3 m/s 762 mmHg 85%
07:00 +12°C° 0 mm 3 m/s 762 mmHg 85%
08:00 +13°C° 0 mm 2 m/s 763 mmHg 84%
09:00 +14°C° 0 mm 2 m/s 763 mmHg 79%
10:00 +15°C° 0 mm 2 m/s 763 mmHg 73%
11:00 +16°C° 0 mm 2 m/s 763 mmHg 68%
12:00 +16°C° 0 mm 2 m/s 763 mmHg 67%
13:00 +16°C° 0 mm 2 m/s 762 mmHg 66%
14:00 +16°C° 0 mm 2 m/s 762 mmHg 65%
15:00 +15°C° 0 mm 2 m/s 762 mmHg 69%
16:00 +14°C° 0 mm 2 m/s 762 mmHg 74%
17:00 +13°C° 0 mm 2 m/s 762 mmHg 78%
18:00 +13°C° 0 mm 1 m/s 763 mmHg 80%
19:00 +13°C° 0 mm 1 m/s 763 mmHg 81%
20:00 +12°C° 0 mm 1 m/s 763 mmHg 82%
21:00 +12°C° 0 mm 1 m/s 763 mmHg 83%
22:00 +12°C° 0 mm 1 m/s 763 mmHg 83%
23:00 +13°C° 0 mm 1 m/s 763 mmHg 84%

Mâine, 25 Ianuarie, Luni

Timp Temperatura Precipitaţii Vânt Presiune Umiditate
00:00 +13°C° 0.1 mm 1 m/s 763 mmHg 84%
01:00 +13°C° 0.1 mm 2 m/s 763 mmHg 85%
02:00 +13°C° 0.1 mm 2 m/s 763 mmHg 86%
03:00 +13°C° 0 mm 2 m/s 763 mmHg 87%
04:00 +12°C° 0 mm 3 m/s 762 mmHg 88%
05:00 +12°C° 0 mm 3 m/s 762 mmHg 89%
06:00 +12°C° 0 mm 3 m/s 763 mmHg 90%
07:00 +12°C° 0 mm 3 m/s 763 mmHg 90%
08:00 +13°C° 0 mm 3 m/s 763 mmHg 90%
09:00 +13°C° 0.1 mm 3 m/s 763 mmHg 90%
10:00 +14°C° 0.1 mm 3 m/s 764 mmHg 91%
11:00 +14°C° 0.1 mm 3 m/s 764 mmHg 91%
12:00 +16°C° 0.2 mm 3 m/s 763 mmHg 88%
13:00 +17°C° 0.2 mm 4 m/s 763 mmHg 85%
14:00 +18°C° 0.2 mm 4 m/s 763 mmHg 81%
15:00 +17°C° 0.1 mm 4 m/s 763 mmHg 86%
16:00 +15°C° 0.1 mm 4 m/s 764 mmHg 90%
17:00 +14°C° 0.1 mm 3 m/s 764 mmHg 94%
18:00 +14°C° 0 mm 3 m/s 765 mmHg 95%
19:00 +14°C° 0 mm 3 m/s 765 mmHg 95%
20:00 +14°C° 0 mm 2 m/s 766 mmHg 96%
21:00 +14°C° 0 mm 2 m/s 766 mmHg 95%
22:00 +14°C° 0 mm 2 m/s 766 mmHg 94%
23:00 +14°C° 0 mm 2 m/s 766 mmHg 93%

Poimâine, 26 Ianuarie, Marţi

Timp Temperatura Precipitaţii Vânt Presiune Umiditate
00:00 +14°C° 0 mm 2 m/s 767 mmHg 92%
01:00 +14°C° 0 mm 2 m/s 767 mmHg 91%
02:00 +14°C° 0 mm 2 m/s 767 mmHg 91%
03:00 +14°C° 0 mm 2 m/s 767 mmHg 90%
04:00 +14°C° 0 mm 2 m/s 767 mmHg 90%
05:00 +15°C° 0 mm 2 m/s 767 mmHg 89%
06:00 +15°C° 0 mm 2 m/s 767 mmHg 90%
07:00 +14°C° 0 mm 3 m/s 768 mmHg 91%
08:00 +14°C° 0 mm 3 m/s 768 mmHg 92%
09:00 +17°C° 0 mm 3 m/s 769 mmHg 90%
10:00 +18°C° 0 mm 3 m/s 769 mmHg 88%
11:00 +19°C° 0 mm 4 m/s 769 mmHg 86%
12:00 +19°C° 0 mm 4 m/s 769 mmHg 85%
13:00 +19°C° 0 mm 4 m/s 768 mmHg 84%
14:00 +19°C° 0 mm 4 m/s 768 mmHg 83%
15:00 +18°C° 0 mm 3 m/s 768 mmHg 86%
16:00 +17°C° 0 mm 3 m/s 769 mmHg 89%
17:00 +16°C° 0 mm 2 m/s 769 mmHg 93%
18:00 +16°C° 0 mm 2 m/s 769 mmHg 93%
19:00 +16°C° 0 mm 2 m/s 769 mmHg 94%
20:00 +15°C° 0 mm 2 m/s 770 mmHg 95%
21:00 +15°C° 0 mm 2 m/s 770 mmHg 96%
22:00 +15°C° 0 mm 1 m/s 770 mmHg 96%
23:00 +14°C° 0 mm 1 m/s 770 mmHg 96%

27 Ianuarie, Miercuri

Timp Temperatura Precipitaţii Vânt Presiune Umiditate
00:00 +15°C° 0 mm 1 m/s 769 mmHg 96%
01:00 +15°C° 0 mm 1 m/s 769 mmHg 97%
02:00 +15°C° 0 mm 1 m/s 769 mmHg 97%
03:00 +15°C° 0 mm 1 m/s 769 mmHg 97%
04:00 +15°C° 0 mm 1 m/s 769 mmHg 97%
05:00 +15°C° 0 mm 1 m/s 769 mmHg 97%
06:00 +15°C° 0 mm 1 m/s 769 mmHg 96%
07:00 +15°C° 0 mm 0 m/s 769 mmHg 95%
08:00 +15°C° 0 mm 0 m/s 770 mmHg 94%
09:00 +16°C° 0 mm 0 m/s 770 mmHg 91%
10:00 +18°C° 0 mm 1 m/s 770 mmHg 88%
11:00 +19°C° 0 mm 1 m/s 770 mmHg 85%
12:00 +19°C° 0 mm 1 m/s 770 mmHg 84%
13:00 +19°C° 0 mm 1 m/s 769 mmHg 82%
14:00 +20°C° 0 mm 1 m/s 769 mmHg 80%
15:00 +19°C° 0 mm 1 m/s 769 mmHg 84%
16:00 +18°C° 0 mm 1 m/s 769 mmHg 87%
17:00 +16°C° 0 mm 1 m/s 769 mmHg 91%
18:00 +15°C° 0 mm 1 m/s 769 mmHg 92%
19:00 +15°C° 0 mm 1 m/s 770 mmHg 93%
20:00 +14°C° 0 mm 1 m/s 770 mmHg 94%
21:00 +14°C° 0 mm 1 m/s 770 mmHg 95%
22:00 +14°C° 0 mm 1 m/s 770 mmHg 95%
23:00 +14°C° 0 mm 1 m/s 770 mmHg 95%

28 Ianuarie, Joi

Timp Temperatura Precipitaţii Vânt Presiune Umiditate
00:00 +14°C° 0 mm 1 m/s 770 mmHg 95%
01:00 +12°C° 0 mm 0 m/s 770 mmHg 95%
02:00 +12°C° 0 mm 0 m/s 770 mmHg 95%
03:00 +12°C° 0 mm 0 m/s 770 mmHg 96%
04:00 +12°C° 0 mm 0 m/s 769 mmHg 96%
05:00 +12°C° 0 mm 0 m/s 769 mmHg 96%
06:00 +13°C° 0 mm 0 m/s 770 mmHg 95%
07:00 +14°C° 0 mm 1 m/s 770 mmHg 94%
08:00 +15°C° 0 mm 1 m/s 770 mmHg 93%
09:00 +16°C° 0 mm 1 m/s 770 mmHg 88%
10:00 +19°C° 0 mm 1 m/s 770 mmHg 82%
11:00 +20°C° 0 mm 1 m/s 770 mmHg 76%
12:00 +21°C° 0 mm 1 m/s 770 mmHg 74%
13:00 +21°C° 0 mm 1 m/s 770 mmHg 71%
14:00 +22°C° 0 mm 1 m/s 769 mmHg 69%
15:00 +20°C° 0 mm 1 m/s 769 mmHg 74%
16:00 +17°C° 0 mm 0 m/s 769 mmHg 80%
17:00 +16°C° 0 mm 0 m/s 769 mmHg 86%

29 Ianuarie, Vineri

Timp Temperatura Precipitaţii Vânt Presiune Umiditate
Arată mai mult

Formular de consimțământ

Meteoprog și furnizorii noștri de servicii pot stoca și accesa date personale, precum cookies, identificatori de dispozitiv sau alte tehnologii similare pe dispozitivul dumneavoastră și procesa astfel de date pentru a personaliza conținutul și reclamele, dar și pentru a oferi caracteristici de social media și pentru a analiza traficul.

  • Stocarea și/sau accesarea informațiilor pe dispozitivul dumneavoastră

    Cookies, identificatori de dispozitiv sau alte informații pot fi stocate sau accesate pe dispozitiv în scopurile indicate mai sus.

  • Reclame și conținut personalizat, evaluarea reclamelor și a conținutului, informații despre audiențe și dezvoltarea produselor

    Reclamele și conținutul pot fi personalizate pe baza unui profil. Pot fi adăugate date suplimentare pentru a personaliza mai bine reclamele și conținutul. Performanța reclamelor și conținutului poate fi măsurată. Pot fi obținute informații despre utilizatorii care au văzut reclamele și conținutul. Aceste date pot fi utilizate pentru a dezvolta sau îmbunătăți experiența utilizatorilor, sistemele și software-ul.

Dând clic pe ‘Sunt de acord’, permiteți utilizarea cookie-urilor menționate, a identificatorilor de dispozitiv, balizelor web sau altor tehnologii similare. Setările pot fi modificate din browser-ul dispozitivului dumneavoastră.

În anumite scopuri, interesele legitime pot prima asupra consimțământului. Puteți citi mai multe informații în acest sens în Politica privind Confidențialitatea Datelor și Cookie.